Retour au catalogue

STARLINK-35078

ActifCommunicationsSSO
NORAD 65523·PAYLOAD·🇺🇸 United States

Lancé Sep 6, 2025 depuis Cape Canaveral Space Force Station

Loading…

Prochains Passages (prochaines 24 heures)

TLE

FraisSource: CelesTrak SupGP

Époque: Sep 14, 2026, 15:32 UTC

1 65523C 25200D   26257.64770833  .00053719  00000+0  16674-2 0  2577
2 65523  97.2853 324.1811 0000804 101.1572  88.8607 15.33415739    15

Suivez STARLINK-35078 en temps réel avec AllMySat

Download on the App Store